GFSSW_sfc_dewp_003.txt.gz
Dewpoint
55 55 55 56 56 56 56 57 57 57 57 58 58 58 59 60 58 54 43 47 48 73 75 54 54 47 49 45 44 40 41 34 34 42 35 37 38 44 49 50 51 52 56 60 63
55 55 55 55 55 56 56 56 56 57 57 57 58 58 59 59 48 34 54 71 72 72 52 45 42 44 42 41 41 39 48 37 33 42 37 38 37 43 46 49 50 53 57 61 63
54 54 55 55 55 55 56 56 56 56 56 56 57 58 59 57 39 26 66 69 74 71 36 38 36 40 39 36 33 34 44 41 36 37 40 38 39 42 44 46 50 53 56 60 61
54 54 54 54 55 55 55 55 56 55 55 56 56 57 58 50 24 36 68 69 73 54 40 33 33 30 34 29 28 31 39 38 37 38 40 38 40 40 41 44 48 53 55 59 60
53 53 53 53 54 54 54 55 55 54 54 55 56 57 53 36 27 46 69 66 54 43 41 29 29 26 29 25 27 29 32 33 33 37 38 42 40 39 40 44 48 54 55 57 59
52 53 54 54 53 54 54 55 54 54 54 55 56 57 48 29 24 35 35 43 38 38 31 26 25 22 23 25 26 29 30 29 31 34 39 41 41 42 41 46 49 54 55 56 58
52 53 53 53 52 52 53 54 53 53 54 56 56 53 40 30 24 28 37 33 33 33 28 24 22 17 19 22 24 27 27 31 33 33 37 39 40 39 43 48 50 53 56 56 57
52 53 53 52 52 52 53 53 52 54 56 58 58 51 35 29 33 27 28 28 29 31 28 23 20 19 19 23 24 24 27 27 33 33 35 38 39 43 45 46 48 52 55 56 57
52 52 52 53 53 53 52 51 53 56 56 57 54 49 31 46 34 31 32 31 27 27 32 26 25 19 20 19 22 26 24 27 33 34 38 39 40 44 47 45 47 50 53 55 57
53 53 53 53 52 52 51 51 52 57 56 53 50 45 36 30 29 31 32 28 23 28 26 23 21 18 17 20 22 27 26 28 35 33 39 38 42 44 46 47 43 48 50 54 55
53 53 52 52 51 51 48 38 42 48 48 34 32 28 26 25 33 28 30 25 22 27 21 19 13 13 18 23 25 26 27 26 29 31 36 38 38 42 46 47 46 46 48 52 54
52 52 52 51 51 50 47 24 23 22 18 17 19 20 19 18 18 24 27 23 19 21 21 15 13 14 19 22 23 24 26 28 29 31 34 36 38 39 48 48 47 47 47 49 52
52 52 52 51 49 47 23 24 24 22 17 13 13 13 13 13 14 16 16 23 18 17 18 12 9 11 16 21 23 24 25 27 27 37 38 36 38 38 41 48 49 47 48 48 50
52 52 51 50 40 26 24 28 26 22 16 11 13 14 18 19 15 17 21 15 22 17 14 15 9 9 12 18 20 22 24 26 27 34 35 33 31 38 37 41 48 49 48 48 50
52 52 50 49 38 28 23 22 21 23 13 15 17 22 25 24 25 22 23 17 19 18 16 13 11 11 13 14 19 21 23 27 28 31 41 31 30 36 36 37 42 47 49 48 49
52 51 50 38 38 35 29 26 26 18 15 15 20 23 25 23 19 24 21 19 20 18 17 15 12 8 10 11 17 20 23 26 26 27 28 32 32 35 36 37 38 42 48 50 50
51 49 47 41 25 26 26 23 15 13 16 14 14 17 17 17 18 22 21 18 18 18 20 17 14 11 7 11 15 19 21 22 24 23 23 29 32 42 37 34 36 36 39 47 51
49 47 44 37 35 33 27 15 15 14 13 10 11 16 15 14 15 18 21 17 19 17 14 16 14 15 11 11 13 18 19 20 27 23 23 28 28 30 34 33 31 33 32 40 49
48 35 30 28 33 33 22 9 12 15 12 10 12 13 16 14 14 14 19 19 17 17 18 16 18 14 13 10 10 15 18 20 21 24 22 23 27 29 33 34 32 32 31 32 45
42 38 30 28 38 36 22 16 12 9 6 8 12 13 15 16 15 16 16 17 17 16 18 20 20 16 11 11 9 9 15 18 22 28 25 22 26 25 33 32 31 33 31 34 39
41 26 31 34 40 34 20 16 14 11 9 7 11 14 12 12 13 14 15 14 13 16 20 16 21 20 18 14 13 9 10 19 20 22 22 22 24 28 34 36 33 32 31 32 40
34 27 31 36 32 27 25 22 24 14 11 6 6 10 15 14 15 15 15 16 14 17 18 21 20 22 19 16 13 11 13 14 21 31 23 24 22 26 28 29 31 32 31 33 40
33 30 29 24 17 16 20 18 18 18 16 13 8 6 9 12 17 17 16 15 17 19 22 22 21 22 23 18 16 15 13 12 14 23 33 24 23 26 27 29 32 31 32 34 40
35 25 22 22 21 17 17 17 16 16 16 18 17 14 9 10 13 16 15 15 15 16 51 38 24 26 20 24 17 16 13 11 11 16 23 22 26 29 29 31 31 33 33 36 38
37 28 26 24 21 29 31 33 25 28 24 22 21 17 15 15 12 13 15 17 15 33 27 28 30 27 23 22 20 14 8 8 11 16 19 22 24 28 32 32 31 30 33 34 36
39 35 32 28 29 27 27 25 19 22 24 25 21 19 18 20 20 14 14 21 23 22 27 28 33 32 25 21 19 18 16 10 10 10 14 17 20 24 28 33 31 31 33 33 34
43 45 37 30 25 21 18 22 22 16 18 27 28 31 29 24 28 29 29 23 22 28 30 34 34 37 33 29 28 24 21 20 19 16 13 14 20 22 26 31 34 32 32 35 39

GFSSW_sfc_dewp_006.txt.gz
Dewpoint
55 55 55 55 56 56 57 57 57 57 57 57 57 58 59 59 59 53 44 43 48 74 73 55 54 51 45 42 44 45 38 40 38 34 32 36 36 44 49 48 55 56 56 60 62
54 55 55 55 55 55 56 56 57 57 57 57 57 57 59 59 48 37 46 66 71 73 39 38 44 46 39 40 41 40 42 41 43 40 35 35 37 40 43 46 49 54 57 59 62
53 54 54 54 54 54 55 55 56 56 55 56 56 57 58 57 40 29 70 72 73 67 28 30 36 37 36 38 37 41 42 41 41 41 39 35 36 37 43 43 48 56 57 58 60
53 53 54 54 54 53 54 54 55 55 55 55 55 56 58 50 24 33 69 71 73 49 32 28 30 33 33 35 35 32 38 40 38 36 40 35 37 37 42 43 49 55 59 59 59
53 54 54 54 53 53 54 54 54 54 54 55 55 56 51 34 34 41 70 67 50 41 33 33 28 32 30 32 31 27 36 37 33 35 37 37 38 38 38 44 48 52 58 59 58
52 53 54 55 54 54 54 54 54 53 53 54 55 57 47 25 28 42 37 43 35 31 32 34 27 30 29 29 28 26 28 30 29 31 34 39 38 37 38 42 47 51 55 57 58
52 52 53 54 53 53 54 53 53 52 53 55 57 53 36 22 29 26 29 33 32 33 25 30 28 26 27 25 26 25 26 28 28 29 34 37 38 37 40 40 46 50 53 55 57
53 53 53 54 53 53 53 52 53 53 55 57 58 52 32 19 26 29 26 29 28 30 28 26 25 22 24 23 22 21 24 25 28 30 32 36 37 37 41 40 43 50 51 53 55
53 53 53 54 53 52 51 51 52 54 57 57 55 49 31 44 31 30 27 23 23 24 28 25 22 18 19 19 19 21 22 24 26 31 32 34 42 42 42 42 42 47 50 51 55
53 53 53 53 52 51 51 51 52 55 57 53 49 44 41 29 30 26 26 23 24 24 21 26 22 20 16 19 18 21 23 24 26 33 30 33 48 48 47 41 43 44 48 52 52
53 53 53 52 51 51 47 40 41 45 49 40 36 28 22 31 25 28 28 27 24 20 23 25 20 19 21 21 22 21 25 24 27 35 31 38 51 53 49 45 41 45 46 50 52
53 53 53 52 51 49 46 35 22 22 17 17 24 33 33 26 25 28 24 25 21 19 22 17 16 15 19 22 22 23 24 26 27 34 34 33 47 49 50 45 44 42 44 46 48
52 52 52 51 49 46 33 19 23 21 17 14 12 12 22 28 23 18 24 26 17 17 21 17 13 12 15 20 21 22 23 25 25 30 32 31 33 41 44 43 43 44 44 45 48
52 52 52 51 41 32 26 26 19 18 15 13 10 10 11 13 12 13 15 21 22 16 14 17 16 9 10 16 21 21 22 23 23 31 31 34 30 43 41 45 44 44 44 44 47
52 52 51 50 40 35 26 23 20 20 13 13 10 12 9 10 12 11 12 14 14 15 18 13 15 11 9 12 18 22 23 23 23 26 35 37 34 38 42 42 45 45 45 45 48
52 51 50 40 37 36 33 25 22 16 14 14 17 17 13 10 15 18 12 14 17 13 18 17 12 12 8 7 13 19 21 22 22 24 26 31 33 33 37 41 40 45 46 47 48
51 50 48 42 32 26 28 21 14 13 17 14 15 19 19 18 15 19 19 19 17 15 18 17 15 10 10 9 10 13 17 21 21 22 23 28 33 39 40 41 40 47 48 48 50
49 48 46 40 38 38 30 18 17 16 15 14 12 15 17 20 19 16 19 18 17 15 15 16 13 13 11 9 11 12 14 20 24 22 22 28 26 32 40 41 43 45 49 46 49
49 40 37 32 33 34 27 12 16 18 17 14 13 12 15 14 14 15 18 18 14 15 19 13 15 15 12 11 8 12 13 15 19 21 21 23 26 27 32 39 41 37 37 38 47
42 39 38 36 30 29 24 21 15 14 14 14 14 14 14 15 14 15 16 19 18 15 16 18 18 14 14 12 12 8 13 11 16 24 25 23 29 29 35 38 41 42 40 36 39
42 33 29 27 29 32 23 20 20 19 17 15 14 12 13 14 15 16 15 15 14 17 18 15 19 17 18 17 14 10 10 12 14 19 22 25 26 33 41 43 41 39 37 35 38
35 28 27 32 29 30 27 26 27 22 21 18 16 14 12 12 15 15 16 16 15 14 16 19 17 20 16 16 14 13 14 13 14 27 21 23 24 26 39 38 35 37 36 38 40
33 30 30 26 23 21 23 22 24 23 24 23 19 16 14 11 17 16 16 14 14 15 18 19 20 22 18 17 18 14 12 12 11 17 28 23 23 28 36 40 41 38 38 44 48
37 26 24 24 23 20 20 19 17 17 19 21 24 23 19 16 14 17 14 14 14 15 51 34 20 27 18 23 20 21 15 15 13 12 19 19 28 30 36 37 38 41 42 42 52
36 30 27 27 26 29 35 31 28 27 25 29 30 27 24 21 17 13 11 12 14 30 27 23 29 26 20 19 19 19 15 14 17 20 20 19 22 32 34 39 38 38 43 45 49
40 35 37 31 28 24 25 27 25 28 25 24 29 30 30 31 33 32 28 25 20 19 21 20 30 29 26 21 20 20 19 14 13 16 18 18 20 23 30 33 43 39 42 43 45
41 42 42 35 27 22 18 18 26 24 27 27 23 27 32 32 35 34 31 28 27 28 29 29 25 33 29 24 23 22 23 20 18 13 15 17 23 28 28 35 39 46 42 43 44

GFSSW_sfc_dewp_009.txt.gz
Dewpoint
54 55 55 54 54 55 55 56 56 56 57 56 57 57 58 59 58 51 45 45 51 71 72 50 56 53 56 55 54 56 51 50 47 41 35 40 49 53 55 58 59 60 59 62 63
54 54 54 54 54 54 54 54 55 55 55 56 56 57 58 59 52 38 47 63 67 73 46 37 40 51 47 46 41 42 46 45 45 43 36 38 49 52 54 57 58 59 61 63 63
53 54 54 54 54 54 54 54 54 54 54 55 56 56 57 57 47 30 68 61 64 69 41 31 28 36 42 41 37 38 40 43 42 42 37 38 39 44 51 54 57 58 61 63 63
52 52 53 53 53 53 54 54 54 54 54 54 55 56 57 54 22 35 70 70 68 59 42 30 24 25 32 34 35 36 38 40 42 43 40 36 37 43 45 53 57 59 62 63 63
52 53 53 53 53 54 54 54 54 54 53 54 55 56 53 42 37 33 70 70 62 50 39 32 25 26 29 32 32 34 35 37 39 42 39 38 38 43 44 56 58 58 59 61 62
53 53 54 54 54 54 54 54 54 53 53 54 55 56 52 31 23 26 50 54 45 39 34 31 29 29 31 31 30 31 31 37 36 34 41 39 37 41 48 56 57 58 58 59 63
53 53 54 54 53 54 54 54 54 52 52 54 56 54 46 29 22 43 36 42 40 34 28 31 33 32 28 30 30 27 26 26 29 29 34 43 45 38 47 51 57 58 58 58 59
53 54 54 54 54 54 53 52 52 52 53 55 57 53 45 30 29 26 24 27 35 32 32 25 29 29 25 27 26 24 22 21 26 29 31 38 43 45 42 49 53 56 57 58 59
53 53 53 53 53 53 52 52 53 54 54 57 56 54 43 45 34 29 25 27 28 28 31 28 25 24 22 21 21 20 18 20 24 29 34 36 40 39 38 48 49 53 54 56 58
53 53 53 52 52 51 51 51 51 53 57 55 51 47 46 34 29 29 28 29 24 24 23 25 25 22 20 17 17 18 20 20 23 29 34 39 41 44 42 41 49 50 51 53 55
53 52 52 52 51 51 48 43 40 42 49 44 42 36 25 28 30 29 27 24 23 21 22 22 22 20 19 16 18 20 20 20 23 32 34 43 45 46 41 44 45 49 50 52 53
53 52 52 52 51 49 48 41 32 19 19 19 19 31 37 38 33 25 26 24 23 23 22 19 20 22 22 21 17 19 20 21 23 32 33 45 44 43 40 39 42 45 50 51 52
53 52 52 51 49 47 32 29 27 20 18 15 15 15 15 27 33 30 26 26 24 22 19 18 22 23 20 20 21 19 20 21 23 29 34 43 45 46 42 44 45 46 47 51 51
53 52 51 51 42 37 33 32 27 21 17 14 12 12 13 14 21 30 27 26 25 20 18 19 21 18 17 14 17 20 22 22 22 23 28 37 36 46 44 51 51 49 44 47 51
53 52 51 50 43 40 34 35 31 24 15 17 14 13 12 10 17 25 29 24 21 23 17 14 20 19 16 10 12 20 23 22 22 22 33 33 32 37 45 47 49 48 43 44 47
52 51 50 44 40 39 37 33 29 20 16 15 11 10 9 9 11 13 23 18 18 20 20 19 19 13 16 16 10 13 20 22 22 22 21 31 31 35 39 46 49 46 45 44 45
51 50 48 45 39 31 39 32 19 15 19 16 14 14 9 9 9 9 11 11 11 10 11 12 14 18 13 13 12 9 12 16 18 20 20 23 31 36 37 40 42 44 44 46 45
50 49 46 42 42 42 40 26 18 19 16 18 16 16 14 13 10 9 13 10 11 11 14 13 11 15 17 12 11 9 9 12 17 19 20 23 23 28 37 42 43 46 46 46 47
49 41 38 37 37 39 34 25 18 19 19 17 16 16 17 18 19 13 15 11 11 11 14 11 13 19 16 15 11 11 8 9 12 20 22 21 22 25 37 38 40 42 45 45 45
45 40 39 39 39 35 31 26 21 18 19 20 18 17 16 16 16 19 15 18 19 18 18 17 20 18 17 15 13 8 13 9 8 10 16 18 22 26 31 38 42 43 43 43 45
43 35 32 30 30 33 27 26 24 24 23 21 20 19 18 16 15 14 16 18 17 19 17 14 15 15 19 15 11 12 7 8 10 11 13 19 21 26 31 41 42 41 41 41 45
37 31 31 32 27 27 25 27 31 27 28 27 25 24 22 21 18 15 13 14 18 18 18 16 14 14 14 17 15 12 13 9 14 12 18 14 16 27 23 40 41 40 42 38 44
35 33 33 31 23 24 25 24 25 22 21 22 23 25 25 24 23 21 19 16 14 16 18 20 15 16 18 16 15 13 12 13 7 15 16 22 17 19 19 32 34 36 41 41 44
39 29 28 30 28 24 27 30 31 31 29 27 26 29 28 27 27 26 24 20 14 12 49 38 18 16 16 19 19 21 15 13 10 8 9 10 11 19 26 36 38 38 38 40 42
43 33 29 29 31 30 32 33 28 26 28 26 30 31 28 30 29 29 33 33 32 36 27 22 18 18 19 20 18 14 18 14 13 10 11 11 11 16 20 38 41 39 43 42 44
39 36 36 32 31 27 28 23 21 20 27 26 26 32 30 35 34 33 33 33 32 31 29 28 26 29 27 22 18 16 18 20 12 12 14 14 15 23 23 24 43 40 37 34 47
43 41 40 34 29 27 27 25 28 26 28 28 30 27 31 29 32 36 33 31 32 32 29 28 30 31 22 26 25 20 17 19 22 16 15 15 15 21 23 27 37 40 41 32 40

GFSSW_sfc_dewp_012.txt.gz
Dewpoint
54 54 54 54 54 54 54 55 55 55 55 55 56 56 58 58 58 55 44 42 50 72 73 65 64 59 64 64 61 61 49 46 47 46 46 55 55 57 59 59 58 59 61 62 63
53 53 53 53 54 54 54 54 54 54 54 55 55 56 57 58 54 46 46 63 65 71 52 42 55 54 51 52 57 54 48 46 46 46 46 53 55 57 58 58 58 60 61 62 64
53 53 53 53 53 53 54 54 54 54 54 54 55 55 57 57 45 33 70 64 66 70 48 43 36 46 49 47 44 42 41 44 45 46 49 53 55 57 57 56 58 60 61 63 63
53 53 53 53 53 54 54 54 53 54 54 54 55 55 56 55 9 28 72 71 66 59 47 39 31 24 26 29 33 35 37 40 42 42 44 51 54 56 57 57 60 62 62 62 63
53 53 53 53 53 53 54 54 54 53 53 53 54 55 53 43 37 25 68 70 62 55 46 39 30 24 24 26 32 33 33 35 40 42 40 40 50 56 55 59 61 62 62 63 63
54 54 54 54 54 54 54 55 54 53 53 53 54 55 50 21 17 24 33 52 49 46 43 36 31 28 26 28 30 33 31 30 38 40 40 37 44 50 56 59 60 61 62 63 63
54 54 54 54 54 54 54 53 54 53 53 53 54 53 50 21 23 26 41 45 46 40 34 36 32 30 30 29 31 31 27 27 25 35 39 41 46 53 57 59 60 61 62 62 63
53 53 54 54 54 53 53 52 53 53 54 54 55 54 43 38 33 26 24 21 32 40 36 31 32 30 31 30 25 22 23 21 22 29 40 40 43 55 57 58 60 61 61 62 62
53 53 53 53 53 52 52 52 52 53 53 57 54 52 43 50 44 37 27 24 26 31 33 31 26 26 26 22 20 21 19 19 20 26 41 41 41 48 56 56 56 57 60 61 62
53 53 53 53 52 51 51 51 51 53 56 55 54 43 39 29 39 31 27 24 27 30 28 31 27 23 22 20 17 19 19 19 20 20 36 40 41 44 56 56 56 57 57 57 61
53 53 53 52 51 50 48 45 33 31 48 44 42 40 32 32 37 29 27 26 28 25 22 23 21 23 22 21 19 19 19 20 20 24 38 38 38 41 51 55 56 56 57 57 57
53 53 53 52 51 49 47 38 38 31 24 23 25 31 35 35 34 37 29 26 24 21 21 21 19 22 23 21 18 17 17 17 20 23 35 40 38 41 46 49 53 54 55 56 57
53 53 52 52 50 43 36 30 32 32 17 16 18 19 19 25 30 32 30 24 22 21 21 18 20 21 23 22 19 16 15 16 20 22 35 42 42 42 43 45 48 51 52 55 56
53 53 52 51 39 42 38 35 35 32 15 15 14 15 16 19 21 27 35 24 26 20 24 22 20 20 20 21 20 19 19 17 19 22 22 40 34 45 44 44 44 48 50 51 53
53 52 51 50 44 43 37 37 36 23 15 20 14 16 15 13 15 19 28 28 24 23 20 20 19 18 21 21 21 18 20 22 21 22 24 28 35 39 45 43 48 46 47 50 51
53 51 50 45 43 42 40 39 30 15 14 17 15 10 12 12 12 19 25 29 25 24 23 20 19 20 20 20 20 18 16 21 23 22 22 30 34 33 44 42 44 45 47 48 51
51 50 49 45 40 39 42 33 14 15 18 19 16 13 10 9 9 12 24 26 23 17 20 23 22 19 16 16 18 14 10 11 15 17 19 21 30 32 40 44 44 44 46 47 49
49 49 47 42 45 44 38 21 16 17 15 19 20 18 11 11 9 6 11 24 24 13 14 17 16 15 16 16 13 13 10 9 10 16 18 22 23 28 38 43 46 45 45 48 45
49 43 40 39 38 40 34 26 18 17 20 21 20 17 17 17 18 11 8 8 19 17 11 12 12 17 13 13 17 15 9 9 11 27 19 20 22 25 29 39 44 46 47 46 45
45 41 40 40 38 37 32 29 23 24 23 24 20 19 22 21 20 19 16 13 11 13 12 11 13 14 12 13 14 13 13 13 9 7 9 14 20 22 25 29 40 42 45 46 45
42 36 35 33 31 34 29 28 26 25 25 26 26 25 24 23 23 23 20 16 17 12 11 10 15 14 15 13 15 15 11 10 9 8 7 12 12 20 25 30 36 43 45 45 46
39 32 34 34 26 28 29 28 31 27 27 26 27 26 25 24 24 24 23 20 24 24 20 12 9 12 14 15 17 16 13 9 8 9 11 8 10 23 24 26 38 42 43 47 47
37 35 36 31 25 28 32 31 30 30 29 29 25 28 29 28 26 27 28 29 34 32 34 29 17 14 12 13 16 15 13 10 11 10 8 13 12 19 19 20 38 42 42 45 42
37 31 29 31 32 29 29 31 29 31 26 27 26 31 30 27 31 31 32 34 33 33 43 33 23 14 13 13 15 15 15 13 9 8 9 11 16 16 22 29 32 40 43 42 44
36 32 33 29 30 30 30 28 30 28 26 27 27 27 31 28 31 31 32 34 32 37 31 31 25 22 24 19 15 15 16 15 11 9 8 9 10 12 15 20 21 27 40 40 40
38 37 36 33 32 29 28 25 31 31 30 26 27 29 29 31 31 31 31 33 30 31 30 31 26 27 27 24 16 15 18 17 17 13 11 11 10 13 14 20 28 33 39 40 41
41 42 39 34 30 27 28 26 27 28 33 30 28 29 28 30 32 31 34 35 34 32 30 30 27 25 25 25 18 18 17 17 16 17 15 12 13 19 20 24 26 27 31 38 43

GFSSW_sfc_dewp_015.txt.gz
Dewpoint
54 54 54 54 54 54 54 55 54 54 54 55 55 56 56 57 57 55 38 40 49 74 75 73 69 68 66 67 61 62 52 48 45 47 50 56 57 58 60 59 59 60 61 62 65
54 53 53 53 53 54 54 54 54 54 54 54 55 55 56 57 53 48 48 63 65 75 67 69 66 64 63 63 61 57 50 48 46 46 53 55 56 58 58 58 59 60 62 64 64
53 53 53 53 53 53 54 54 54 54 54 54 54 55 56 56 42 20 63 64 67 72 52 59 57 56 51 51 59 56 53 49 47 45 54 55 56 58 58 57 59 60 61 62 64
53 53 53 53 53 53 53 53 54 54 54 54 54 54 56 54 7 23 73 71 70 53 46 43 36 36 40 48 51 42 50 52 46 40 54 55 56 56 57 56 60 60 62 62 63
53 53 53 53 53 53 53 53 53 53 53 54 54 54 52 41 29 20 67 68 63 51 43 36 31 30 23 26 30 43 41 36 37 39 52 55 56 56 56 59 60 61 61 62 63
54 54 54 54 54 53 54 54 54 53 53 54 54 54 47 9 15 27 29 56 53 50 45 37 32 29 26 25 27 31 32 32 32 29 51 54 55 56 57 59 60 61 61 62 63
54 54 54 54 54 54 54 53 53 52 53 54 54 52 50 14 18 28 36 43 51 46 40 40 33 26 26 25 30 30 29 27 27 27 46 52 52 55 57 60 60 61 61 62 62
54 54 54 54 54 54 53 52 52 53 54 54 55 52 35 35 36 26 21 20 39 43 33 35 35 30 30 31 28 23 23 22 25 28 32 46 44 52 59 60 60 60 61 62 62
54 54 54 54 53 53 52 51 52 54 55 56 52 50 34 47 44 37 27 20 21 32 38 36 31 29 29 27 22 21 22 21 22 24 40 40 43 55 58 59 59 60 61 62 62
54 54 54 53 53 52 51 52 51 54 56 55 54 43 38 26 43 35 32 24 26 28 33 31 25 23 23 21 21 20 19 19 20 23 38 40 43 55 58 59 59 60 60 61 62
54 53 53 53 52 50 49 44 33 32 46 39 41 37 31 31 36 34 27 23 26 27 27 27 27 24 22 22 21 21 20 19 21 25 37 38 41 55 57 58 59 60 60 61 61
53 53 53 52 51 50 44 30 34 33 29 29 28 29 32 33 27 27 25 20 24 22 23 22 22 26 25 24 21 20 18 18 18 22 27 35 38 54 56 56 58 59 60 61 61
53 52 52 52 50 43 39 34 35 34 24 19 21 20 20 27 27 25 27 24 24 24 21 20 20 23 24 23 20 19 18 18 17 22 27 39 41 44 55 56 56 57 58 59 59
53 52 51 51 38 43 37 38 37 37 15 16 14 15 20 27 26 26 34 24 24 22 22 20 20 21 21 21 22 19 20 18 17 20 18 38 34 42 46 54 54 56 57 57 57
52 51 50 50 43 42 33 39 40 24 17 24 15 17 18 17 17 23 32 29 24 21 22 21 21 19 19 19 22 21 22 21 24 20 21 24 31 34 43 45 48 52 54 56 57
51 50 50 45 43 43 42 41 29 13 13 17 15 13 14 13 12 23 24 30 26 24 23 21 23 21 20 21 20 24 22 17 22 21 19 20 24 24 42 41 43 46 50 52 54
50 49 48 45 39 40 42 31 14 12 18 18 18 19 18 11 10 18 23 25 23 22 22 22 22 19 20 20 22 20 15 15 11 16 15 18 26 23 34 44 43 44 46 50 51
49 48 46 42 43 45 39 21 13 15 15 21 22 20 15 20 13 13 22 22 26 20 22 21 19 22 19 19 18 18 16 15 10 15 15 20 21 24 33 39 44 43 45 46 49
48 42 42 41 40 41 32 20 15 18 22 23 21 20 22 23 22 22 18 22 25 17 16 19 20 19 22 18 18 15 15 15 10 22 14 19 21 24 28 32 41 43 43 45 47
44 41 40 41 39 37 32 27 23 25 24 26 21 25 24 24 22 24 22 19 18 25 18 15 13 14 16 19 18 16 15 15 10 10 11 13 17 18 25 26 38 44 44 45 47
39 35 36 35 34 34 29 29 28 27 26 25 25 25 25 25 24 24 24 25 30 30 27 18 12 13 14 13 14 14 14 12 12 10 9 9 11 18 25 28 31 40 45 46 47
36 30 33 36 26 28 29 31 33 28 29 28 27 26 26 27 27 24 24 26 33 33 33 32 15 12 12 16 13 13 12 12 11 10 10 9 11 20 22 25 29 31 40 43 47
35 33 38 33 27 25 27 28 30 29 29 27 27 28 30 28 25 31 31 34 33 33 35 35 26 12 10 18 16 13 15 13 12 11 12 10 11 16 21 24 26 33 39 41 46
36 31 32 32 31 29 29 26 29 32 29 27 27 30 30 27 31 29 30 34 32 32 41 33 27 22 16 14 18 15 15 15 12 12 12 11 11 17 18 20 20 29 35 43 47
34 30 32 29 30 31 29 27 30 30 34 30 26 28 30 28 31 30 31 33 33 36 32 31 27 26 27 26 25 22 16 14 13 13 12 12 10 11 19 21 21 22 28 42 43
36 34 35 33 31 30 29 28 28 29 32 32 28 27 29 29 30 29 31 33 32 31 30 31 28 27 25 25 25 23 18 17 14 14 13 12 12 15 16 20 19 18 24 31 39
41 39 39 36 32 29 27 28 28 29 32 34 28 26 26 28 33 33 33 32 31 31 29 29 28 27 24 25 25 21 19 18 15 16 14 12 13 15 14 16 17 18 26 31 31

GFSSW_sfc_dewp_018.txt.gz
Dewpoint
53 54 54 54 54 54 54 54 55 55 55 55 55 55 56 57 57 55 36 37 45 72 75 72 70 66 67 65 62 62 54 49 45 50 51 59 57 59 60 59 59 59 61 62 66
53 53 53 53 53 54 54 54 54 54 55 55 55 55 56 56 54 47 47 61 69 75 72 68 66 65 64 66 62 59 52 49 48 48 52 57 57 58 59 58 59 60 62 65 65
53 53 53 53 53 54 54 54 54 54 54 54 54 55 55 56 42 17 63 62 75 75 70 67 67 64 61 59 61 59 55 52 49 48 52 56 57 58 59 56 59 59 62 64 65
54 53 53 53 54 54 54 54 53 53 54 54 54 54 55 53 10 47 72 65 74 67 67 64 64 58 54 55 59 51 52 55 52 47 54 55 57 57 58 57 58 61 63 64 65
54 54 54 54 54 53 54 54 54 53 53 54 54 54 51 41 22 57 69 66 70 56 57 51 58 51 42 43 51 50 48 43 44 43 49 55 56 56 58 59 61 61 63 63 64
55 55 55 55 54 54 54 54 54 53 53 53 54 54 46 6 12 27 61 61 59 50 43 38 39 35 29 26 39 32 38 41 33 32 45 54 55 56 57 59 60 61 62 63 64
54 55 55 55 54 54 54 53 53 52 53 54 54 51 49 7 16 26 52 51 49 46 42 39 33 32 29 27 27 29 29 29 29 29 46 54 54 55 58 59 59 60 61 62 64
54 54 54 54 54 54 53 52 53 53 55 56 55 50 29 30 35 31 23 29 49 45 38 40 34 29 28 29 27 23 23 23 27 32 43 53 50 56 58 59 59 59 60 62 63
54 54 54 54 53 52 51 51 53 56 56 56 51 48 28 46 42 34 21 18 38 44 39 35 34 30 29 25 24 23 23 22 24 24 37 51 43 53 58 59 59 59 60 61 62
53 53 53 53 52 51 50 52 51 56 54 53 53 41 39 28 41 40 29 23 22 30 32 35 29 28 25 23 15 23 20 20 22 26 43 46 42 53 58 59 59 59 60 61 61
53 53 53 52 51 50 49 39 32 32 37 44 41 37 34 30 32 32 30 23 29 30 29 29 27 24 23 22 23 24 21 21 24 23 31 38 44 56 57 58 58 59 60 61 61
52 52 52 51 50 50 41 32 31 30 30 30 29 30 35 31 26 26 25 20 23 24 27 24 26 28 25 23 22 21 20 20 22 21 22 23 30 54 57 57 58 59 60 61 61
52 52 51 50 50 42 39 33 36 36 29 25 27 25 25 29 27 25 23 22 21 23 24 23 23 29 27 24 22 21 20 20 20 23 23 34 36 42 55 57 58 59 59 60 61
52 52 51 50 36 43 33 39 39 38 18 18 16 18 25 27 25 26 24 22 23 19 22 22 22 24 24 24 23 21 21 20 18 18 16 35 27 41 51 56 56 58 59 59 61
52 51 50 49 42 40 29 40 39 26 18 25 15 17 22 20 20 24 33 30 23 22 22 22 21 21 21 21 23 22 21 20 20 18 20 26 22 28 49 54 55 56 57 59 60
51 51 50 45 42 43 42 41 31 20 19 19 15 14 17 16 14 24 28 32 26 23 24 23 23 21 20 21 22 23 21 18 23 21 18 19 21 23 41 50 54 55 56 57 58
50 49 48 45 37 41 43 32 15 15 20 20 20 21 19 15 14 21 23 26 23 21 21 23 23 21 21 19 21 21 19 18 15 16 16 19 22 21 32 43 46 52 54 56 57
48 48 44 43 42 41 38 21 13 16 15 23 23 22 19 23 22 23 20 24 25 22 22 20 19 21 20 19 19 20 18 18 14 13 15 21 18 22 26 39 43 44 48 51 54
48 42 40 40 39 40 30 18 15 18 23 23 23 22 23 25 23 22 21 18 26 20 21 21 21 22 21 20 20 19 18 17 13 24 13 18 22 25 30 29 41 43 44 45 49
43 40 37 40 36 36 31 25 25 27 27 25 22 25 24 25 23 24 22 30 30 30 27 19 20 18 22 20 20 16 18 15 14 14 13 16 17 21 28 29 33 42 45 45 46
38 34 33 37 36 33 24 28 30 31 29 27 24 24 25 25 25 23 24 32 32 33 32 29 14 15 16 19 19 16 15 14 15 15 13 12 14 21 25 30 29 31 43 45 46
36 29 31 34 27 29 25 26 34 31 30 28 28 27 27 28 26 24 28 32 33 35 33 35 22 16 16 15 19 19 17 14 14 14 12 14 13 22 22 23 30 31 39 46 48
36 35 37 32 25 25 29 25 27 35 32 27 26 29 29 28 24 30 29 34 32 32 36 33 25 15 11 17 17 13 17 16 14 15 14 12 14 17 22 25 27 31 34 41 47
37 30 32 32 31 28 29 27 25 31 36 34 27 30 30 28 30 29 30 32 32 32 40 33 27 21 18 20 25 22 18 14 14 14 14 14 15 20 23 24 26 29 34 38 42
33 28 33 29 28 30 28 28 29 30 32 36 33 28 28 27 29 29 30 31 31 36 31 30 25 26 27 27 26 25 23 23 15 14 13 14 15 19 22 24 25 25 30 35 38
36 35 36 33 32 30 29 26 28 27 30 31 34 33 27 28 29 29 31 31 30 31 28 30 26 28 26 25 25 25 25 25 22 19 17 15 16 19 21 25 27 28 29 32 36
39 40 39 33 34 31 27 28 27 29 30 33 35 29 27 27 33 32 32 32 31 30 28 28 29 26 23 26 25 22 19 20 20 19 17 16 19 20 20 23 25 24 27 29 32

GFSSW_sfc_dewp_021.txt.gz
Dewpoint
54 54 54 54 54 54 54 54 55 55 55 55 55 55 56 56 56 53 35 33 43 73 72 67 65 65 64 63 64 61 56 51 46 49 50 58 57 59 59 58 58 59 60 61 65
54 54 54 54 54 54 54 54 54 54 54 54 55 55 55 56 51 42 47 60 64 75 67 63 62 63 62 62 63 60 55 50 49 50 44 57 56 58 58 57 57 59 61 63 65
54 54 54 54 54 54 54 54 54 54 54 54 54 55 55 55 38 18 61 61 70 73 66 64 63 62 60 63 61 61 55 54 49 48 46 52 56 58 57 56 56 58 61 63 64
54 54 54 54 54 54 54 54 54 54 54 54 54 54 55 52 11 46 72 64 74 67 66 63 62 58 56 57 61 57 57 55 49 48 49 52 57 57 58 56 57 59 61 62 63
53 54 54 54 54 53 54 54 54 54 54 54 54 54 51 38 16 58 68 67 71 65 61 60 60 57 52 55 55 57 51 49 48 46 42 47 55 55 57 57 58 61 61 61 62
54 54 54 54 54 54 54 54 54 53 53 54 53 52 45 7 9 41 55 66 66 62 58 59 59 55 48 36 49 46 43 33 37 39 35 45 50 56 56 59 60 61 61 61 61
53 53 54 54 54 54 54 53 52 53 53 54 54 50 45 12 18 32 57 61 63 56 57 54 52 52 37 30 33 32 27 27 27 30 31 41 51 53 57 59 60 60 61 61 62
52 52 53 53 53 53 52 52 52 57 55 54 54 49 28 27 28 23 47 48 60 52 47 48 43 47 31 28 27 26 27 22 25 27 34 42 32 51 58 58 59 60 60 61 62
53 53 53 53 53 52 51 52 53 56 57 56 51 49 21 45 29 22 27 40 50 49 40 39 36 34 30 26 22 23 22 24 25 27 40 46 34 43 57 58 58 60 60 61 62
53 53 53 52 52 50 51 51 53 55 53 53 49 40 31 25 36 30 21 42 40 40 37 34 33 31 28 24 17 20 20 23 25 26 31 42 42 47 56 57 58 59 59 60 61
53 53 52 52 51 50 47 39 33 35 34 43 43 36 35 29 39 33 19 22 32 35 29 33 27 27 26 25 22 19 20 22 24 25 33 37 41 47 56 57 57 59 59 59 60
52 52 52 51 50 50 40 31 32 32 31 31 30 33 38 35 27 31 21 16 22 24 29 30 26 25 26 27 23 20 19 22 24 23 23 27 31 35 53 57 58 59 59 59 60
52 52 51 51 50 42 39 35 38 38 32 27 29 27 26 28 28 27 20 18 19 20 23 24 24 27 27 26 23 20 17 19 22 22 22 26 26 34 51 55 57 58 59 59 60
52 51 50 50 39 41 32 38 40 39 24 22 20 22 25 26 25 26 26 22 19 19 22 21 25 27 27 25 22 16 18 18 22 22 22 29 24 36 40 52 55 57 58 59 60
51 51 49 49 43 39 34 40 40 36 9 22 15 21 25 23 21 24 25 25 19 18 23 22 25 26 26 25 25 18 20 20 22 22 23 22 25 29 44 48 53 56 57 58 59
51 50 49 44 44 42 42 41 37 20 14 20 14 15 20 20 17 24 25 28 25 21 21 20 25 25 25 26 27 26 24 24 25 22 21 23 22 25 30 40 48 54 56 58 59
50 49 48 44 34 38 41 35 19 16 21 21 21 22 21 18 15 22 24 25 23 20 22 22 22 23 24 22 25 24 20 19 17 17 18 23 23 27 30 39 37 49 55 57 60
48 48 43 42 42 40 38 21 16 15 19 24 24 23 19 24 21 22 22 22 26 19 17 19 19 22 22 23 21 23 19 13 17 13 14 26 22 24 29 31 40 43 50 55 58
48 41 38 38 37 39 31 13 16 25 28 26 24 23 23 25 24 23 22 20 25 24 20 18 18 23 22 21 22 22 21 18 14 18 15 16 21 26 29 29 35 40 43 49 54
43 39 35 36 37 37 27 22 27 31 30 26 24 25 24 25 24 24 25 31 28 31 32 26 23 22 23 22 21 21 22 17 16 16 14 15 21 19 32 31 33 38 40 43 47
41 33 30 37 34 30 24 25 27 31 32 28 26 25 25 25 25 24 29 29 31 33 34 29 22 20 24 22 21 19 20 20 17 16 10 9 11 29 34 39 37 36 39 41 45
38 27 34 35 25 27 23 26 30 28 34 30 27 28 27 27 25 27 29 31 29 34 33 33 22 22 21 22 22 21 21 21 16 24 17 14 10 23 28 32 37 35 37 41 48
36 34 36 32 25 27 28 27 25 29 32 34 29 29 30 29 25 29 30 33 30 34 34 31 27 24 22 19 20 22 22 21 19 21 25 14 13 20 27 29 31 32 35 42 47
37 28 31 32 32 27 26 25 26 29 32 37 35 29 29 29 30 28 29 30 30 34 40 33 28 28 21 24 26 25 20 22 19 19 20 20 18 22 26 30 31 35 39 40 45
40 32 33 28 27 29 30 28 27 26 28 32 36 36 30 27 27 28 30 29 29 35 31 31 26 28 26 26 25 24 23 22 22 23 22 21 21 24 28 31 32 32 38 40 41
38 35 37 33 32 31 28 26 27 26 28 25 34 32 33 32 27 28 30 30 29 30 29 30 25 30 25 23 22 23 24 24 23 23 22 21 21 23 28 32 34 33 36 39 42
43 42 39 36 31 33 27 26 26 29 29 30 34 31 27 28 29 29 29 29 29 28 29 29 28 27 21 24 24 22 23 23 23 24 23 22 25 26 26 30 33 36 38 41 41

GFSSW_sfc_dewp_024.txt.gz
Dewpoint
54 54 54 54 54 55 55 55 55 55 55 55 55 55 56 56 56 50 33 35 41 72 71 64 65 63 62 60 62 60 52 45 43 45 47 54 54 57 58 56 56 57 57 61 64
54 54 54 54 54 54 54 54 55 55 55 55 55 55 55 56 46 32 46 62 62 75 58 60 61 60 58 56 58 56 50 43 45 44 42 49 53 57 55 55 54 57 59 62 63
54 54 54 54 54 54 54 54 54 54 54 55 55 55 55 54 36 16 62 63 68 71 51 56 56 56 51 54 55 53 49 46 44 44 43 45 53 56 53 53 54 57 60 62 62
53 53 53 53 53 53 53 53 54 53 54 54 54 54 55 47 15 35 70 63 71 51 49 51 53 52 49 51 53 51 51 50 46 44 43 41 50 54 54 52 55 58 60 61 61
52 53 53 53 53 53 53 54 54 53 53 54 54 53 49 32 15 36 65 63 62 50 48 49 51 48 43 46 49 52 47 45 45 44 42 38 45 49 53 55 55 59 60 60 60
52 53 53 54 53 53 54 54 53 53 53 54 53 53 40 20 11 14 43 50 54 50 48 47 49 46 42 43 46 45 48 44 34 34 37 34 41 48 51 56 57 59 59 59 60
53 53 54 54 54 54 53 53 52 53 56 57 54 49 39 21 13 19 44 51 54 52 47 46 46 47 40 41 35 42 38 31 29 31 32 32 34 45 50 57 57 58 58 59 59
53 53 54 54 54 53 52 52 52 56 57 55 55 47 33 26 25 31 41 49 55 52 45 47 47 47 39 31 27 29 29 27 31 32 30 33 34 44 51 56 57 58 58 59 59
53 53 53 53 53 52 51 52 54 57 55 55 50 44 29 41 20 19 43 43 51 49 47 45 45 40 39 34 26 24 25 29 31 31 33 36 35 39 51 54 55 58 58 59 59
53 53 53 52 52 51 51 51 56 56 53 52 46 39 31 23 25 15 39 34 48 46 40 38 37 27 30 30 25 25 24 26 29 31 31 32 35 36 47 50 53 57 58 58 58
52 52 52 51 51 50 45 37 39 44 37 39 39 32 31 26 33 17 23 34 42 43 30 29 23 21 20 24 23 24 24 26 27 31 30 32 33 35 44 50 50 56 58 58 59
52 52 51 51 50 50 40 30 32 32 28 26 26 30 38 36 31 21 22 30 30 33 27 26 23 21 20 18 21 22 22 23 27 28 27 30 30 34 40 49 51 54 57 58 58
52 51 51 50 50 42 35 35 36 35 28 24 26 24 26 30 29 26 17 24 27 26 23 22 21 21 19 22 21 21 21 22 24 27 26 27 29 31 31 39 48 51 55 57 58
52 51 50 50 41 36 32 34 37 37 25 15 21 25 25 27 26 28 15 21 21 24 22 21 22 22 21 21 20 19 19 19 20 23 25 28 26 33 33 37 42 47 52 55 57
52 50 49 49 40 33 35 36 38 37 8 21 18 23 24 25 24 24 27 13 14 18 21 22 21 21 21 22 21 18 13 16 18 19 23 26 25 29 32 33 35 42 47 53 56
51 50 49 41 37 34 35 37 38 23 8 18 16 17 20 24 22 24 27 19 17 17 20 20 19 20 22 22 22 20 16 15 18 16 18 25 25 27 29 35 35 42 48 53 55
50 48 46 39 33 35 35 34 18 9 15 21 19 20 18 17 22 21 24 25 24 20 20 21 19 21 21 22 23 21 19 16 13 13 15 23 23 28 29 31 34 35 40 52 55
48 47 43 36 34 35 34 24 13 11 22 25 24 22 21 19 18 18 23 22 24 21 18 18 17 19 22 22 22 22 18 11 17 9 11 22 22 25 29 31 31 34 34 46 54
48 33 32 31 34 37 29 11 7 27 27 26 23 22 20 22 22 20 20 22 22 23 22 19 19 17 20 21 22 23 20 14 10 15 12 12 20 23 27 29 30 31 33 37 51
39 32 29 31 33 34 24 18 22 26 27 26 24 24 25 24 24 22 19 27 23 23 27 24 22 19 18 20 20 20 21 14 12 18 17 11 18 19 27 30 31 32 32 36 45
34 27 29 31 29 22 15 18 20 21 27 25 25 25 26 26 26 23 24 28 29 27 33 27 24 22 21 20 19 18 19 18 14 13 12 12 11 22 27 31 31 32 34 35 42
32 20 31 31 20 21 19 23 27 21 24 26 26 23 26 27 27 26 28 30 29 32 31 29 25 24 20 20 19 19 20 20 15 23 16 15 10 15 21 24 31 31 34 35 39
32 29 31 29 20 21 23 22 22 23 27 29 30 28 28 27 27 28 30 30 29 32 33 32 25 23 23 21 23 20 20 20 18 19 26 16 14 21 27 29 33 33 34 38 41
32 23 24 27 28 25 24 22 22 23 25 25 37 34 30 23 27 28 27 27 27 29 39 34 28 27 20 25 24 23 21 21 19 18 19 19 19 22 22 26 29 28 31 32 41
33 27 31 24 26 28 28 23 22 23 24 24 34 36 35 28 24 24 28 27 26 32 29 30 30 30 28 26 25 22 20 21 22 23 22 20 22 24 26 27 29 30 32 32 35
32 32 34 32 30 27 27 25 22 24 24 24 26 30 30 34 30 29 29 28 27 29 28 27 30 30 28 26 24 23 24 23 22 22 23 23 23 25 27 30 31 31 33 33 34
40 39 40 32 29 27 25 25 26 26 26 26 26 25 24 29 32 31 29 28 29 29 28 28 26 29 26 25 24 24 25 24 25 25 25 25 28 29 29 30 31 31 31 32 35